Location: Oshawa
(43.9000°N, 78.8670°W)
Time: 21:25:10
(UTC-04:00)

Iridium 98 - Visible Passes

Search period start: 01 April 2015 00:00
Search period end: 11 April 2015 00:00
Orbit: 776 x 779 km, 86.4° (Epoch: 01 April)

Date Brightness Start Highest point End Pass type
(mag) Time Alt. Az. Time Alt. Az. Time Alt. Az.
01 Apr 8.4 01:36:16 10° NW 01:36:21 10° NW 01:36:21 10° NW visible
01 Apr 7.8 23:21:20 10° NNE 23:22:35 16° NNE 23:22:35 16° NNE visible
02 Apr 8.1 01:01:59 10° NNW 01:03:03 16° NNW 01:03:03 16° NNW visible
02 Apr 7.9 22:48:38 10° NNE 22:49:17 12° NE 22:49:17 12° NE visible
03 Apr 7.8 00:28:05 10° N 00:29:46 21° NNW 00:29:46 21° NNW visible
03 Apr 7.5 23:54:29 10° N 23:56:28 24° N 23:56:28 24° N visible
04 Apr 7.4 23:21:09 10° N 23:23:11 22° NNE 23:23:11 22° NNE visible
05 Apr 8.1 01:02:27 10° NNW 01:03:40 15° NW 01:03:40 15° NW visible
05 Apr 7.5 22:48:07 10° NNE 22:49:54 18° NE 22:49:54 18° NE visible
06 Apr 7.7 00:28:21 10° NNW 00:30:23 22° NNW 00:30:23 22° NNW visible
06 Apr 7.8 22:15:48 10° NE 22:16:38 12° NE 22:16:38 12° NE visible
06 Apr 7.2 23:54:35 10° N 23:57:07 29° N 23:57:07 29° N visible
07 Apr 7.0 23:21:05 10° N 23:23:51 31° NNE 23:23:51 31° NNE visible
08 Apr 8.1 01:03:09 10° NW 01:04:20 14° NW 01:04:20 14° NW visible
08 Apr 7.0 22:47:50 10° NNE 22:50:35 25° NE 22:50:35 25° NE visible
09 Apr 7.6 00:28:42 10° NNW 00:31:04 22° NW 00:31:04 22° NW visible
09 Apr 7.3 22:15:01 10° NNE 22:17:20 18° NE 22:17:20 18° NE visible
09 Apr 7.0 23:54:45 10° NNW 23:57:49 33° NNW 23:57:49 33° NNW visible
10 Apr 7.7 21:43:30 10° NE 21:44:05 11° ENE 21:44:05 11° ENE visible
10 Apr 6.5 23:21:06 10° N 23:24:34 43° N 23:24:34 43° N visible
